Methuen, Massachusetts, United States (01844)
Lat: 42.73N, Lon: 71.19W
Wx Zone: MAZ006
Local Info
Past Weather Observations for Saturday, April 25, 2015

NOTE: This archive is for the closest National Weather Service station to Methuen. Information may differ from the station used for current weather conditions.

Click here for Long-term Archive

Time Weather Temperature Dewpoint Humidity Pressure Winds Precip Visibility
23:54
Overcast
43°F / 6°C 30°F / -1°C 61% 29.74 in
(1007 mb)
Calm - 10SM
22:54
Overcast
43°F / 6°C 28°F / -2°C 57% 29.74 in
(1007 mb)
Calm - 10SM
21:54
Partly Cloudy
43°F / 6°C 28°F / -2°C 57% 29.74 in
(1007 mb)
N 4.6 mph
(N 7 kph)
- 10SM
20:54
Clear
43°F / 6°C 27°F / -3°C 53% 29.74 in
(1007 mb)
N 4.6 mph
(N 7 kph)
- 10SM
19:54
Clear
45°F / 7°C 27°F / -3°C 49% 29.74 in
(1007 mb)
N 8.1 mph
(N 13 kph)
- 10SM
18:54
Overcast
48°F / 9°C 27°F / -3°C 43% 29.74 in
(1007 mb)
NW 9.2 mph
(NW 15 kph)
- 10SM
17:54
Mostly Cloudy
50°F / 10°C 28°F / -2°C 43% 29.71 in
(1006 mb)
NW 9.2 mph
(NW 15 kph)
- 10SM
16:54
Overcast
52°F / 11°C 28°F / -2°C 41% 29.71 in
(1006 mb)
NNW 11.5 mph
(NNW 19 kph)
- 10SM
15:54
Overcast
54°F / 12°C 27°F / -3°C 35% 29.68 in
(1005 mb)
NNW 12.7 mph
(NNW 20 kph)
- 10SM
14:54
Overcast
54°F / 12°C 27°F / -3°C 35% 29.68 in
(1005 mb)
NW 10.4 mph
(NW 17 kph)
- 10SM
13:54
Overcast
54°F / 12°C 27°F / -3°C 35% 29.68 in
(1005 mb)
NW 13.8 mph
(NW 22 kph)
- 10SM
12:54
Mostly Cloudy
54°F / 12°C 27°F / -3°C 35% 29.71 in
(1006 mb)
WNW 12.7 mph
(WNW 20 kph)
- 10SM
11:54
Clear
54°F / 12°C 27°F / -3°C 35% 29.71 in
(1006 mb)
NW 18.4 mph
(NW 30 kph)
- 10SM
10:54
Mostly Cloudy
50°F / 10°C 27°F / -3°C 40% 29.74 in
(1007 mb)
NW 11.5 mph
(NW 19 kph)
- 10SM
09:54
Mostly Cloudy
46°F / 8°C 27°F / -3°C 46% 29.74 in
(1007 mb)
NW 12.7 mph
(NW 20 kph)
- 10SM
08:54
Mostly Cloudy
43°F / 6°C 25°F / -4°C 49% 29.77 in
(1008 mb)
WNW 13.8 mph
(WNW 22 kph)
- 10SM
07:59
Mostly Cloudy
41°F / 5°C 25°F / -4°C 53% 29.77 in
(1008 mb)
NW 12.7 mph
(NW 20 kph)
- 10SM
07:54
Partly Cloudy
43°F / 6°C 25°F / -4°C 49% 29.77 in
(1008 mb)
WNW 13.8 mph
(WNW 22 kph)
- 10SM
06:58
Mostly Cloudy
39°F / 4°C 25°F / -4°C 56% 29.77 in
(1008 mb)
NW 8.1 mph
(NW 13 kph)
- 10SM
06:54
Partly Cloudy
39°F / 4°C 25°F / -4°C 56% 29.77 in
(1008 mb)
NW 9.2 mph
(NW 15 kph)
- 10SM
05:54
Partly Cloudy
37°F / 3°C 21°F / -6°C 52% 29.77 in
(1008 mb)
NW 5.8 mph
(NW 9 kph)
- 10SM
04:54
Clear
36°F / 2°C 21°F / -6°C 56% 29.77 in
(1008 mb)
NW 6.9 mph
(NW 11 kph)
- 10SM
03:54
Clear
36°F / 2°C 21°F / -6°C 56% 29.77 in
(1008 mb)
W 6.9 mph
(W 11 kph)
- 10SM
02:54
Clear
36°F / 2°C 21°F / -6°C 56% 29.77 in
(1008 mb)
W 8.1 mph
(W 13 kph)
- 10SM
01:54
Clear
36°F / 2°C 21°F / -6°C 56% 29.77 in
(1008 mb)
W 5.8 mph
(W 9 kph)
- 10SM
00:54
Clear
37°F / 3°C 21°F / -6°C 52% 29.77 in
(1008 mb)
WNW 8.1 mph
(WNW 13 kph)
- 10SM
Time Weather Temperature Dewpoint Humidity Pressure Winds Precip Visibility


Weather for websites

WeatherForYou.com, LLC is not responsible for any damages or problems caused by this service. Current weather conditions are obtained from the closest station including government and personal stations which may have varying degrees of accuracy. Weather forecasts are derived from the NOAA NDFD. Like all things, this site belongs to Jesus Christ... He just trusts us to maintain it. If you have any questions or comments email webmaster@weatherforyou.com

Copyright © 2015, WeatherForYou.com LLC. All rights reserved.